TITAN 3C TRANSTAGE DEB, 1833

Orbit data source: Space-Track

TITAN 3C TRANSTAGE DEB, 1833 is space debris in LEO originally from a launch on Fri, 15 Oct 1965 UTC launched from the Air Force Eastern Test Range (AFETR). Debris objects in space refer to the collection of defunct objects orbiting the Earth. Examples of debris include non-operational satellites, rocket bodies, and fragments generated from explosions, collisions, or faulty payload assembly.

Loading next visibility...
Identifier
1833, 1965-082DY
Orbit
LEO
Country
Flag of USUS
Related business
Manufacturer
Unknown
Mission
Spacecraft
Bus & Motor
Unknown
Mass
Unknown
Launch date (UTC)
1965-10-15 (60 years ago)
Launch vehicle
Unknown
Launch site
Air Force Eastern Test Range (AFETR)
Object type
Payload
Rocket body
Debris
Shape & HBR
Unknown shape, 0.2 m
Radar Cross Section
Medium (>0.1 m² and <1 m²)

Expand to show TLE details & history
Last TLE update: 1 day ago

TLE from 1 day ago
0 TITAN 3C TRANSTAGE DEB
1 01833U 65082DY  25306.18933722  .00004293  00000-0  64072-3 0  9997
2 01833  32.2260 128.8819 0060603 213.9880 145.6879 14.72357825136447
Epoch: 2025-11-02T04:32Z
TLE epoch observation values (Epoch: 2025-11-02T04:32:38.735Z)
Latitude
Longitude
19.01188°
Altitude
687.475 km
Speed
7.496 km/s
True Right ascension
08h 35m 31s
True Declination
0° 00' 00"
Sunlit
Object was in daylight at epoch
Visualization orbit readout
Latitude
Unknown
Longitude
Unknown
Altitude
Unknown
Speed
Unknown
Apparent Right ascension
Unknown
Apparent Declination
Unknown
Sunlit
N/A
Visualization observer readout
Local Sidereal Time
06:47:55
Azimuth
Unknown
Elevation
Unknown
Doppler factor
Unknown
Orbital elements
Apogee altitude
699.785 km
Perigee altitude
614.513 km
Semi-major axis
7,035.286 km
Eccentricity
0.00606
Inclination
32.226°
RAAN
128.8819°
Arg. of periapsis
213.988°
True anomaly
146.07693°
Mean anomaly
145.6879°
Eccentric anomaly
145.88266°
Mean motion
3.67807 °/min
Orbital period
97.88 mins
BSTAR
0.00064072

Documentation

Showing up to 5 results
|